Date String (YYYY-MM-DD hh:mm:ss) UTC,Instrument flags,Ambient pressure (hPa),Sample flow (lpm),Bypass flow (lpm),Sample temperature (°C),Ambient temperature (°C),ASC tube jacket temperature (°C),LED temperature (°C),Box temperature (°C),Sample RH (%),Span deviation,Mass concentration (μg/m³),Mass concentration (μg/m³),Mass concentration (μg/m³)
DateTimeUTC,F1_M11,P_M11,Q1_M11,Q2_M11,T1_M11,T2_M11,T3_M11,T4_M11,T5_M11,U1_M11,ZSPAN_M11,X2_M11,X0_M11,X1_M11
2022-02-24 05:00:00,,0821.8,4.99,0.00,22.5,21.5,00.0,31.5,24.1,04.8,0000.2,0004.72,0007.66,0004.33
2022-02-24 05:01:00,,0821.7,4.99,0.00,22.4,21.5,00.0,31.5,24.1,04.8,0001.0,0004.69,0007.62,0004.32
2022-02-24 05:02:00,,0821.7,5.01,0.00,22.5,22.2,00.0,31.5,24.2,04.8,0000.4,0004.68,0007.60,0004.30
2022-02-24 05:03:00,,0821.8,4.99,0.00,22.6,22.9,00.0,31.5,24.4,04.8,0000.2,0004.71,0007.80,0004.29
2022-02-24 05:04:00,,0821.7,4.99,0.00,22.7,23.1,00.0,31.6,24.6,04.8,0000.4,0004.73,0007.91,0004.29
2022-02-24 05:05:00,,0821.7,5.01,0.00,22.7,22.8,00.0,31.6,24.6,04.8,0000.0,0004.74,0008.11,0004.30
2022-02-24 05:06:00,,0821.6,5.01,0.00,22.7,22.5,00.0,31.6,24.5,04.8,0000.1,0004.74,0008.13,0004.30
2022-02-24 05:07:00,,0821.5,4.99,0.00,22.6,22.3,00.0,31.6,24.4,04.8,0000.0,0004.76,0008.12,0004.30
2022-02-24 05:08:00,,0821.5,4.99,0.00,22.6,22.0,00.0,31.6,24.3,04.8,0000.0,0004.75,0007.98,0004.31
2022-02-24 05:09:00,,0821.4,5.02,0.00,22.5,21.8,00.0,31.5,24.2,04.8,0000.7,0004.76,0007.88,0004.32
2022-02-24 05:10:00,,0821.4,4.99,0.00,22.5,21.7,00.0,31.5,24.2,04.9,0000.6,0004.74,0007.98,0004.31
2022-02-24 05:11:00,,0821.4,5.00,0.00,22.4,21.5,00.0,31.5,24.1,04.9,0000.0,0004.74,0008.11,0004.32
2022-02-24 05:12:00,,0821.3,4.99,0.00,22.4,21.4,00.0,31.5,24.0,04.9,0000.0,0004.75,0008.38,0004.33
2022-02-24 05:13:00,,0821.3,5.02,0.00,22.3,21.6,00.0,31.4,24.0,04.9,0000.0,0004.76,0008.44,0004.34
2022-02-24 05:14:00,,0821.3,4.99,0.00,22.4,22.3,00.0,31.5,24.2,04.9,0000.0,0004.75,0008.33,0004.34
2022-02-24 05:15:00,,0821.3,5.00,0.00,22.6,23.1,00.0,31.5,24.4,04.9,0000.0,0004.75,0008.36,0004.35
2022-02-24 05:16:00,,0821.4,4.99,0.00,22.7,23.1,00.0,31.5,24.5,04.9,0000.0,0004.73,0008.30,0004.34
2022-02-24 05:17:00,,0821.4,5.00,0.00,22.6,22.7,00.0,31.5,24.5,04.9,0000.0,0004.72,0008.32,0004.33
2022-02-24 05:18:00,,0821.4,5.01,0.00,22.6,22.5,00.0,31.5,24.4,04.9,0000.0,0004.73,0008.41,0004.32
2022-02-24 05:19:00,,0821.4,5.01,0.00,22.6,22.2,00.0,31.5,24.3,04.9,0000.0,0004.71,0008.46,0004.30
2022-02-24 05:20:00,,0821.4,4.99,0.00,22.5,21.9,00.0,31.5,24.3,04.9,0000.0,0004.69,0008.42,0004.29
2022-02-24 05:21:00,,0821.4,5.00,0.00,22.5,21.7,00.0,31.5,24.2,04.9,0000.6,0004.70,0008.27,0004.27
2022-02-24 05:22:00,,0821.4,5.01,0.00,22.4,21.6,00.0,31.5,24.1,05.0,0002.6,0004.69,0008.17,0004.24
2022-02-24 05:23:00,,0821.4,5.00,0.00,22.4,21.5,00.0,31.4,24.1,05.0,0001.7,0004.66,0007.99,0004.23
2022-02-24 05:24:00,,0821.5,4.99,0.00,22.4,21.5,00.0,31.4,24.0,05.0,0001.6,0004.64,0007.93,0004.21
2022-02-24 05:25:00,,0821.4,5.01,0.00,22.4,22.2,00.0,31.5,24.2,05.0,0001.0,0004.63,0007.88,0004.20
2022-02-24 05:26:00,,0821.4,5.00,0.00,22.6,23.0,00.0,31.5,24.4,05.0,-000.2,0004.61,0007.78,0004.19
2022-02-24 05:27:00,,0821.4,5.00,0.00,22.7,23.1,00.0,31.5,24.6,04.9,0000.2,0004.60,0007.60,0004.18
2022-02-24 05:28:00,,0821.4,5.00,0.00,22.7,22.8,00.0,31.5,24.6,04.9,0000.0,0004.57,0007.51,0004.16
2022-02-24 05:29:00,,0821.4,5.00,0.00,22.6,22.5,00.0,31.5,24.5,04.9,0000.0,0004.55,0007.44,0004.15
2022-02-24 05:30:00,,0821.3,4.99,0.00,22.6,22.2,00.0,31.5,24.4,04.9,0000.0,0004.60,0007.51,0004.15
2022-02-24 05:31:00,,0821.3,5.01,0.00,22.6,21.9,00.0,31.5,24.3,05.0,0000.0,0004.62,0007.61,0004.16
2022-02-24 05:32:00,,0821.2,4.99,0.00,22.5,21.7,00.0,31.5,24.2,05.0,0000.0,0004.63,0007.67,0004.17
2022-02-24 05:33:00,,0821.2,5.00,0.00,22.5,21.5,00.0,31.5,24.1,05.0,0000.0,0004.65,0007.73,0004.18
2022-02-24 05:34:00,,0821.3,5.00,0.00,22.4,21.4,00.0,31.5,24.1,05.0,0000.0,0004.66,0007.66,0004.19
2022-02-24 05:35:00,,0821.3,5.00,0.00,22.4,21.7,00.0,31.4,24.1,05.0,0000.0,0004.68,0007.64,0004.20
2022-02-24 05:36:00,,0821.4,5.01,0.00,22.5,22.4,00.0,31.5,24.3,05.0,0000.0,0004.68,0007.65,0004.20
2022-02-24 05:37:00,,0821.4,4.99,0.00,22.6,23.1,00.0,31.5,24.5,05.0,0000.0,0004.71,0007.74,0004.22
2022-02-24 05:38:00,,0821.4,4.99,0.00,22.7,23.0,00.0,31.5,24.6,05.0,0000.0,0004.74,0007.78,0004.23
2022-02-24 05:39:00,,0821.4,5.00,0.00,22.7,22.6,00.0,31.5,24.5,05.0,0000.0,0004.76,0007.86,0004.23
2022-02-24 05:40:00,,0821.4,5.01,0.00,22.6,22.3,00.0,31.5,24.4,05.0,0000.0,0004.73,0007.79,0004.24
2022-02-24 05:41:00,,0821.4,5.00,0.00,22.6,22.0,00.0,31.5,24.3,05.0,0000.0,0004.67,0007.64,0004.22
2022-02-24 05:42:00,,0821.4,5.00,0.00,22.5,21.8,00.0,31.5,24.2,05.0,0000.0,0004.61,0007.46,0004.21
2022-02-24 05:43:00,,0821.4,4.99,0.00,22.5,21.6,00.0,31.5,24.2,05.0,0000.0,0004.61,0007.41,0004.21
2022-02-24 05:44:00,,0821.4,5.00,0.00,22.4,21.5,00.0,31.5,24.1,05.1,0000.0,0004.61,0007.34,0004.21
2022-02-24 05:45:00,,0821.4,5.02,0.00,22.4,21.4,00.0,31.4,24.0,05.1,0000.0,0004.63,0007.42,0004.21
2022-02-24 05:46:00,,0821.4,5.00,0.00,22.4,22.0,00.0,31.5,24.1,05.1,0000.0,0004.67,0007.67,0004.21
2022-02-24 05:47:00,,0821.4,4.99,0.00,22.5,22.7,00.0,31.5,24.3,05.0,0000.0,0004.69,0007.88,0004.21
2022-02-24 05:48:00,,0821.4,5.00,0.00,22.7,23.1,00.0,31.5,24.6,05.0,0000.0,0004.68,0007.82,0004.21
2022-02-24 05:49:00,,0821.4,5.01,0.00,22.7,22.9,00.0,31.5,24.6,05.0,0000.0,0004.66,0007.80,0004.20
2022-02-24 05:50:00,,0821.4,5.00,0.00,22.7,22.5,00.0,31.5,24.5,05.0,0000.0,0004.66,0007.80,0004.20
2022-02-24 05:51:00,,0821.4,5.00,0.00,22.6,22.1,00.0,31.5,24.4,05.0,0000.0,0004.67,0007.81,0004.20
2022-02-24 05:52:00,,0821.4,5.00,0.00,22.6,21.8,00.0,31.5,24.2,05.0,0000.0,0004.69,0007.89,0004.21
2022-02-24 05:53:00,,0821.4,5.00,0.00,22.5,21.5,00.0,31.5,24.1,05.1,0000.0,0004.72,0007.92,0004.22
2022-02-24 05:54:00,,0821.3,4.99,0.00,22.4,21.3,00.0,31.4,24.0,05.1,0000.0,0004.72,0007.95,0004.23
2022-02-24 05:55:00,,0821.3,5.01,0.00,22.4,21.4,00.0,31.4,24.0,05.1,0000.0,0004.70,0007.89,0004.23
2022-02-24 05:56:00,,0821.4,4.99,0.00,22.4,22.2,00.0,31.5,24.1,05.1,0000.0,0004.69,0007.84,0004.24
2022-02-24 05:57:00,,0821.3,5.01,0.00,22.6,22.9,00.0,31.5,24.4,05.0,0000.0,0004.66,0007.71,0004.24
2022-02-24 05:58:00,,0821.3,4.99,0.00,22.7,23.0,00.0,31.5,24.5,05.0,0000.0,0004.65,0007.46,0004.24
2022-02-24 05:59:00,,0821.2,5.00,0.00,22.6,22.6,00.0,31.5,24.5,05.0,0000.0,0004.65,0007.52,0004.25
